Location: Brno
(49.2000°N, 16.6330°E)
Time: 02:20:44
(UTC+02:00)

Vanguard 3 - Pass Details

Date: 08 August 2021
Orbit: 510 x 3260 km, 33.3° (Epoch: 19 September)

Event Time Altitude Azimuth Distance (km) Brightness Sun altitude
Rises 20:10:20 0° 261° (W) 5,510 12.5 0.9°
Reaches altitude 10° 20:13:45 10° 254° (WSW) 4,840 12.0 0.4°
Maximum altitude 20:27:12 41° 192° (SSW) 3,817 10.5 -1.6°
Drops below altitude 10° 20:44:38 10° 131° (SE) 6,186 11.0 -4.1°
Enters shadow 20:47:32 - 128° (SE) 6,712 11.1 -4.5°
Sets 20:49:47 0° 125° (SE) 7,127 - -4.8°
